Temp
-7 -7 -7 -8 -8 -8 -8 -8 -8 -8 -8 -8 -9 -9 -8 -8 -8 -7 -7 -8 -8 -7 -7 -7 -6 -6 -5 -5 -5 -6 -5 -5 -5 -6 -5 -4 -4 -3 -4 -3 -4 -4 -4 -4 -4
-7 -7 -7 -7 -7 -8 -8 -8 -8 -8 -8 -8 -8 -9 -9 -8 -8 -8 -8 -8 -8 -7 -7 -7 -6 -6 -6 -5 -6 -7 -7 -5 -6 -6 -4 -6 -4 -3 -3 -4 -4 -4 -4 -4 -4
-7 -7 -7 -7 -7 -7 -7 -8 -8 -8 -8 -8 -8 -8 -8 -8 -8 -8 -8 -8 -8 -8 -8 -7 -7 -7 -6 -7 -8 -7 -6 -5 -6 -5 -7 -4 -3 -3 -3 -3 -3 -3 -4 -4 -4
-8 -7 -7 -7 -7 -7 -7 -7 -8 -8 -8 -8 -8 -8 -8 -8 -9 -7 -8 -8 -8 -8 -8 -8 -8 -7 -7 -8 -7 -7 -7 -7 -5 -4 -5 -4 -3 -3 -5 -4 -4 -4 -4 -4 -4
-7 -7 -8 -8 -7 -7 -7 -7 -8 -8 -8 -8 -8 -8 -8 -8 -9 -8 -8 -8 -8 -8 -8 -8 -8 -8 -9 -8 -8 -7 -7 -7 -4 -3 -4 -4 -4 -3 -4 -4 -4 -3 -3 -4 -4
-7 -7 -7 -7 -7 -8 -7 -7 -7 -8 -8 -8 -8 -8 -8 -8 -9 -7 -8 -8 -8 -8 -8 -7 -7 -7 -7 -9 -7 -7 -7 -8 -7 -5 -4 -4 -4 -4 -4 -4 -4 -4 -4 -3 -4
-7 -7 -7 -7 -7 -7 -8 -8 -7 -7 -8 -8 -8 -8 -7 -8 -8 -7 -8 -8 -8 -8 -8 -8 -7 -7 -7 -8 -7 -7 -7 -7 -8 -5 -5 -5 -6 -6 -5 -4 -4 -4 -4 -4 -4
-6 -7 -7 -7 -7 -7 -7 -7 -8 -8 -7 -8 -8 -8 -7 -8 -8 -7 -8 -8 -8 -8 -8 -8 -7 -7 -7 -6 -7 -6 -6 -7 -5 -5 -5 -6 -6 -5 -4 -5 -5 -5 -5 -4 -4
-7 -7 -7 -7 -7 -7 -7 -7 -7 -8 -8 -7 -8 -7 -7 -8 -7 -7 -8 -8 -8 -8 -8 -8 -8 -7 -8 -7 -7 -7 -7 -6 -6 -7 -5 -5 -5 -5 -3 -5 -5 -5 -4 -4 -4
-7 -8 -7 -7 -7 -7 -7 -7 -7 -7 -8 -8 -8 -7 -8 -8 -8 -8 -8 -8 -8 -8 -8 -8 -8 -7 -7 -8 -7 -7 -6 -6 -6 -6 -5 -6 -5 -5 -3 -5 -5 -4 -4 -4 -4
-10 -10 -9 -9 -9 -9 -8 -7 -7 -7 -7 -8 -8 -7 -7 -8 -7 -7 -8 -8 -8 -8 -8 -8 -8 -7 -7 -7 -9 -7 -7 -6 -7 -7 -7 -7 -5 -4 -5 -5 -5 -5 -4 -4 -5
-12 -12 -12 -11 -11 -11 -10 -9 -8 -8 -7 -7 -8 -7 -8 -7 -7 -8 -8 -8 -8 -8 -8 -8 -8 -7 -7 -7 -9 -7 -7 -6 -6 -7 -6 -7 -7 -5 -5 -6 -6 -5 -5 -4 -5
-13 -13 -13 -13 -13 -13 -13 -12 -11 -10 -8 -8 -7 -7 -8 -8 -7 -8 -8 -8 -7 -8 -8 -8 -7 -7 -7 -7 -9 -8 -8 -7 -7 -6 -7 -6 -5 -6 -5 -6 -4 -5 -5 -5 -4
-13 -13 -13 -13 -13 -13 -13 -14 -14 -13 -9 -8 -9 -7 -8 -8 -7 -8 -8 -8 -8 -7 -7 -8 -8 -8 -7 -7 -9 -8 -8 -7 -5 -7 -6 -6 -6 -6 -6 -4 -4 -4 -5 -5 -4
-13 -13 -13 -13 -13 -13 -13 -13 -13 -15 -11 -11 -10 -8 -8 -8 -8 -8 -8 -8 -7 -7 -8 -7 -8 -8 -7 -8 -8 -8 -8 -7 -7 -7 -7 -6 -5 -6 -6 -5 -4 -4 -4 -4 -4
-14 -14 -14 -14 -14 -14 -14 -13 -14 -14 -13 -12 -12 -10 -9 -8 -8 -8 -8 -8 -8 -8 -8 -7 -7 -8 -7 -8 -8 -7 -8 -7 -7 -7 -6 -6 -6 -5 -6 -5 -4 -4 -4 -4 -3
-14 -14 -14 -14 -14 -14 -14 -14 -14 -14 -14 -14 -14 -13 -11 -10 -9 -8 -8 -8 -8 -8 -8 -8 -7 -7 -7 -9 -8 -8 -8 -7 -7 -7 -6 -6 -5 -5 -6 -6 -5 -5 -4 -3 -3
-15 -15 -15 -15 -15 -15 -15 -15 -14 -14 -14 -15 -15 -15 -15 -12 -10 -9 -9 -9 -8 -8 -8 -8 -7 -7 -7 -8 -8 -8 -8 -7 -7 -6 -5 -5 -6 -5 -5 -6 -5 -5 -4 -4 -3
-15 -15 -15 -15 -15 -15 -15 -15 -15 -15 -16 -17 -16 -16 -16 -13 -11 -12 -9 -9 -9 -9 -8 -8 -7 -8 -7 -8 -9 -8 -8 -7 -7 -6 -6 -6 -6 -6 -6 -6 -5 -4 -4 -4 -3
-15 -15 -15 -15 -15 -15 -16 -16 -16 -17 -18 -16 -16 -15 -16 -14 -14 -12 -11 -9 -9 -10 -9 -8 -8 -8 -8 -8 -8 -8 -8 -8 -7 -6 -6 -6 -6 -6 -6 -6 -6 -6 -3 -3 -3
-16 -15 -15 -16 -16 -16 -16 -17 -18 -19 -19 -17 -16 -16 -15 -15 -15 -15 -13 -12 -13 -11 -12 -9 -8 -8 -9 -9 -8 -8 -8 -8 -7 -6 -6 -7 -6 -6 -7 -5 -6 -6 -3 -3 -3
-16 -16 -15 -16 -16 -17 -18 -19 -20 -20 -19 -18 -17 -17 -16 -15 -16 -15 -15 -14 -13 -11 -10 -10 -10 -8 -9 -8 -8 -8 -7 -7 -7 -7 -6 -6 -7 -6 -6 -7 -6 -5 -4 -3 -4
-16 -16 -16 -17 -17 -18 -21 -21 -21 -21 -20 -19 -18 -18 -18 -16 -15 -15 -15 -15 -14 -12 -11 -10 -8 -9 -9 -9 -8 -8 -8 -7 -7 -7 -7 -6 -7 -6 -6 -7 -7 -6 -4 -3 -3
-16 -17 -16 -17 -18 -19 -21 -21 -21 -22 -21 -20 -19 -19 -18 -17 -16 -16 -15 -15 -13 -13 -10 -10 -9 -8 -9 -8 -8 -8 -8 -7 -7 -7 -6 -6 -7 -7 -6 -6 -7 -5 -4 -3 -3
-17 -17 -18 -18 -19 -20 -21 -22 -21 -22 -22 -21 -20 -19 -18 -18 -17 -16 -15 -14 -12 -14 -11 -11 -9 -9 -7 -9 -8 -8 -8 -8 -8 -7 -7 -6 -6 -6 -6 -6 -6 -5 -4 -4 -3
-18 -18 -18 -18 -20 -20 -21 -22 -22 -22 -22 -22 -21 -21 -22 -18 -18 -17 -16 -16 -15 -14 -13 -12 -10 -10 -8 -8 -8 -8 -8 -8 -8 -7 -7 -6 -7 -7 -6 -7 -6 -7 -5 -4 -4
-18 -19 -19 -19 -20 -21 -22 -22 -22 -22 -22 -22 -22 -20 -19 -19 -18 -17 -16 -16 -15 -13 -13 -12 -10 -10 -9 -8 -8 -8 -8 -8 -7 -7 -7 -6 -8 -6 -6 -7 -6 -7 -5 -4 -4
Height
5857 5858 5858 5859 5860 5861 5862 5864 5866 5868 5870 5872 5874 5876 5879 5881 5883 5885 5886 5887 5888 5890 5891 5892 5892 5894 5896 5897 5898 5899 5887 5896 5899 5898 5896 5894 5898 5898 5898 5899 5902 5903 5904 5905 5907
5855 5855 5856 5856 5857 5858 5859 5860 5863 5865 5867 5869 5872 5874 5876 5879 5881 5883 5885 5885 5887 5889 5891 5892 5891 5894 5897 5898 5900 5902 5896 5896 5898 5899 5897 5897 5895 5897 5900 5901 5902 5903 5905 5906 5908
5853 5853 5852 5853 5853 5855 5856 5857 5859 5862 5864 5866 5868 5871 5873 5876 5880 5879 5882 5883 5885 5887 5890 5892 5893 5895 5896 5898 5905 5902 5900 5891 5897 5895 5899 5896 5898 5900 5901 5901 5903 5904 5906 5907 5909
5849 5848 5848 5849 5850 5851 5852 5853 5855 5857 5860 5862 5865 5867 5870 5873 5875 5875 5879 5882 5884 5886 5889 5891 5893 5895 5896 5902 5902 5904 5901 5900 5898 5899 5899 5900 5900 5903 5902 5901 5904 5904 5905 5907 5909
5843 5843 5844 5844 5845 5846 5847 5849 5851 5852 5855 5857 5860 5863 5865 5868 5871 5875 5877 5880 5882 5884 5887 5890 5892 5893 5896 5899 5901 5899 5904 5902 5901 5900 5901 5902 5903 5903 5904 5904 5905 5905 5906 5907 5908
5836 5837 5837 5838 5839 5840 5841 5843 5846 5847 5849 5852 5854 5857 5860 5866 5864 5869 5874 5877 5879 5882 5885 5888 5889 5893 5895 5897 5899 5900 5899 5905 5900 5902 5903 5902 5902 5903 5904 5905 5904 5905 5906 5907 5907
5828 5828 5829 5831 5832 5833 5835 5836 5838 5841 5843 5845 5848 5850 5852 5863 5858 5866 5870 5873 5876 5879 5881 5883 5887 5890 5891 5891 5895 5895 5902 5904 5903 5902 5902 5904 5903 5902 5901 5903 5905 5905 5905 5906 5906
5818 5819 5820 5821 5823 5825 5828 5830 5831 5834 5836 5839 5841 5842 5847 5855 5853 5858 5866 5869 5872 5875 5878 5880 5884 5888 5891 5893 5894 5886 5897 5904 5903 5904 5903 5903 5900 5898 5904 5902 5904 5904 5904 5905 5905
5806 5807 5809 5810 5812 5815 5817 5821 5823 5826 5828 5830 5834 5834 5844 5846 5848 5857 5858 5863 5867 5871 5874 5877 5880 5885 5888 5891 5894 5899 5904 5898 5901 5904 5903 5902 5903 5901 5904 5900 5902 5902 5903 5903 5904
5796 5795 5796 5797 5799 5802 5806 5809 5813 5816 5820 5823 5824 5829 5840 5842 5845 5846 5850 5857 5862 5867 5869 5873 5877 5881 5885 5888 5892 5899 5896 5891 5899 5908 5903 5901 5905 5903 5903 5900 5902 5901 5902 5902 5902
5788 5787 5785 5785 5787 5789 5792 5796 5802 5804 5811 5813 5815 5819 5824 5830 5834 5842 5846 5850 5856 5859 5862 5869 5871 5874 5883 5887 5890 5889 5892 5880 5893 5898 5902 5905 5901 5905 5902 5900 5903 5902 5900 5901 5900
5783 5781 5779 5778 5777 5777 5779 5782 5785 5789 5797 5801 5805 5811 5818 5820 5829 5836 5839 5842 5847 5851 5860 5863 5861 5874 5879 5883 5888 5886 5887 5889 5892 5895 5906 5905 5902 5898 5903 5903 5902 5900 5900 5900 5899
5776 5774 5773 5773 5772 5771 5770 5771 5773 5775 5779 5790 5795 5801 5813 5810 5821 5827 5831 5835 5840 5845 5852 5855 5865 5871 5873 5878 5883 5890 5885 5890 5894 5891 5901 5904 5905 5897 5900 5902 5901 5900 5900 5899 5899
5769 5767 5766 5766 5767 5765 5765 5764 5764 5762 5765 5781 5784 5790 5798 5803 5809 5821 5821 5829 5832 5837 5845 5849 5861 5863 5868 5872 5878 5884 5890 5892 5894 5897 5902 5901 5906 5900 5898 5899 5898 5901 5899 5899 5899
5762 5760 5760 5758 5758 5758 5757 5758 5757 5755 5756 5769 5769 5772 5786 5792 5810 5812 5817 5820 5825 5831 5838 5843 5851 5856 5860 5868 5874 5879 5888 5894 5897 5898 5899 5901 5901 5899 5897 5895 5898 5897 5899 5898 5900
5753 5752 5751 5750 5749 5749 5749 5749 5750 5751 5748 5760 5761 5765 5773 5781 5794 5801 5803 5809 5818 5823 5829 5836 5845 5851 5857 5864 5871 5877 5882 5887 5893 5892 5895 5897 5900 5901 5891 5896 5896 5897 5898 5900 5901
5744 5742 5741 5741 5741 5740 5739 5740 5742 5744 5752 5749 5753 5754 5759 5770 5781 5788 5794 5800 5805 5811 5819 5827 5834 5845 5852 5858 5866 5872 5878 5883 5887 5886 5891 5895 5897 5898 5891 5879 5885 5894 5897 5900 5901
5735 5733 5732 5732 5731 5730 5730 5731 5732 5739 5741 5743 5746 5748 5749 5758 5768 5775 5784 5790 5798 5805 5816 5821 5827 5835 5843 5849 5860 5866 5872 5876 5881 5886 5890 5889 5891 5891 5887 5886 5864 5882 5895 5898 5900
5725 5724 5724 5723 5720 5719 5719 5719 5721 5724 5728 5722 5729 5735 5739 5752 5760 5763 5773 5781 5790 5798 5804 5813 5821 5834 5840 5847 5853 5859 5863 5873 5878 5883 5884 5880 5884 5879 5880 5886 5890 5885 5892 5896 5898
5715 5715 5714 5711 5709 5707 5705 5705 5704 5707 5708 5712 5719 5727 5733 5743 5751 5755 5761 5772 5780 5788 5798 5808 5816 5825 5834 5841 5845 5850 5862 5865 5867 5872 5876 5874 5876 5882 5880 5887 5892 5892 5890 5894 5896
5705 5704 5703 5700 5697 5694 5691 5688 5688 5693 5687 5699 5706 5711 5718 5730 5738 5745 5755 5766 5771 5779 5789 5799 5805 5815 5828 5827 5836 5843 5847 5856 5865 5869 5872 5871 5869 5873 5880 5873 5894 5891 5887 5892 5895
5696 5694 5693 5689 5686 5681 5676 5675 5674 5676 5677 5685 5692 5699 5707 5715 5719 5729 5742 5750 5753 5763 5773 5782 5795 5802 5811 5826 5830 5837 5842 5849 5855 5861 5866 5872 5868 5868 5869 5872 5883 5885 5886 5890 5892
5689 5686 5681 5677 5673 5667 5662 5662 5662 5664 5667 5672 5678 5685 5694 5703 5710 5713 5723 5727 5737 5750 5755 5766 5779 5792 5803 5815 5824 5825 5835 5842 5851 5859 5861 5867 5866 5868 5864 5856 5874 5880 5883 5887 5889
5680 5676 5671 5667 5664 5658 5654 5654 5655 5654 5656 5659 5665 5671 5679 5689 5697 5707 5717 5718 5725 5735 5746 5757 5771 5779 5795 5807 5821 5822 5827 5835 5844 5850 5858 5864 5868 5862 5862 5865 5873 5875 5879 5883 5885
5671 5667 5662 5658 5653 5650 5646 5647 5647 5649 5651 5652 5658 5664 5670 5677 5684 5693 5708 5708 5717 5725 5736 5746 5763 5773 5787 5798 5812 5821 5821 5827 5835 5844 5850 5862 5867 5863 5861 5846 5865 5871 5874 5879 5881
5663 5658 5654 5649 5644 5642 5639 5640 5642 5643 5644 5647 5649 5652 5655 5665 5670 5675 5679 5692 5702 5713 5717 5734 5751 5764 5778 5787 5798 5810 5818 5821 5828 5837 5845 5853 5852 5856 5858 5861 5858 5865 5870 5876 5879
5655 5650 5644 5640 5637 5635 5634 5633 5634 5634 5636 5637 5639 5644 5652 5650 5650 5660 5668 5679 5688 5701 5715 5728 5743 5756 5770 5782 5789 5793 5809 5817 5822 5830 5839 5845 5845 5847 5849 5844 5855 5864 5868 5874 5877
Wind_Speed
14 14 13 13 14 15 17 18 20 18 22 25 25 23 22 20 18 16 13 10 8 12 13 9 8 5 3 4 7 16 9 12 7 9 4 4 4 6 7 5 3 2 2 2 3
16 17 17 16 15 16 17 19 21 21 21 26 28 26 24 20 20 18 15 12 10 11 13 11 8 1 3 6 9 10 20 12 17 10 5 4 8 6 8 8 7 4 1 4 7
17 16 17 19 18 17 18 20 22 23 22 23 28 29 27 24 21 23 17 15 11 12 11 11 6 4 2 14 6 8 6 10 10 6 2 4 3 3 4 5 6 6 5 5 9
19 18 20 19 20 21 20 22 24 25 24 24 26 30 31 28 27 25 21 18 14 12 13 11 8 8 12 7 7 7 2 10 4 6 8 2 3 2 7 3 4 5 6 9 9
26 24 23 22 23 21 23 23 24 26 28 28 27 28 32 32 29 24 23 21 18 15 18 15 13 13 6 8 2 9 5 10 3 3 1 3 3 5 1 5 6 8 8 9 10
32 31 30 28 26 25 25 24 27 27 29 30 31 31 33 32 35 28 23 23 21 18 17 22 18 11 17 6 9 13 11 9 4 3 2 3 2 3 4 5 7 9 9 9 10
38 37 36 35 34 31 28 29 27 30 30 32 33 35 37 27 39 30 28 27 25 22 20 21 23 19 20 16 12 18 11 5 4 3 1 3 4 2 2 5 6 6 9 10 11
39 41 42 41 40 39 36 33 32 32 32 34 35 37 34 32 40 35 30 28 28 26 24 22 21 22 18 15 8 7 4 11 11 9 4 9 14 5 7 5 7 8 8 9 13
40 43 43 43 46 45 43 41 39 37 36 35 37 39 32 38 39 32 35 33 29 29 27 25 22 24 22 14 10 5 11 21 9 12 12 14 11 11 10 9 10 10 10 9 13
32 37 43 47 48 49 50 48 46 45 41 39 39 41 33 36 37 40 40 36 32 29 30 29 24 27 27 21 14 16 25 23 14 19 12 14 6 10 10 9 12 11 12 10 10
28 27 29 35 44 50 53 52 52 52 48 46 47 43 42 41 43 37 37 38 37 35 35 31 32 32 28 23 16 27 32 14 12 2 14 6 16 9 11 12 11 12 12 10 8
22 22 21 25 25 30 43 51 53 56 56 53 51 46 42 43 39 35 39 42 40 41 33 34 38 26 27 27 19 24 27 9 9 14 13 12 12 17 7 9 10 12 12 8 6
26 25 23 22 24 25 25 28 43 53 60 57 56 52 43 48 39 40 42 43 42 42 39 37 29 27 28 32 23 21 24 4 6 17 9 15 5 23 19 12 5 11 8 7 9
28 26 27 28 26 28 28 29 30 34 58 55 55 56 52 51 45 39 45 44 44 45 42 40 30 32 31 32 25 23 18 11 14 10 8 15 6 18 20 10 10 3 7 5 5
31 31 31 30 32 33 34 32 32 35 44 36 49 62 55 56 43 42 41 45 45 44 45 43 38 37 35 30 28 25 18 20 18 20 15 17 18 14 16 22 9 8 4 5 5
33 33 34 36 39 38 37 35 34 34 40 31 35 45 55 55 51 49 49 47 46 45 45 45 41 40 34 31 27 26 22 20 21 18 21 16 18 16 23 18 10 10 7 8 8
34 33 33 32 29 29 30 33 36 35 30 23 26 36 45 47 51 55 53 50 50 51 49 47 48 40 37 32 29 26 26 24 26 18 21 16 19 23 30 29 24 9 12 11 11
30 24 26 27 28 30 28 33 35 34 29 20 23 25 24 40 48 54 54 53 49 49 47 48 49 49 40 38 33 32 30 31 26 20 17 26 21 27 31 33 17 12 13 15 14
25 23 23 27 31 30 33 41 37 35 26 35 39 39 30 33 43 43 56 56 52 48 50 46 47 36 46 35 37 36 37 32 27 23 28 28 25 25 12 10 12 8 13 16 16
28 28 27 31 35 37 40 41 41 37 36 44 47 44 36 32 24 40 50 56 56 45 47 47 40 42 32 41 35 38 30 36 36 34 36 34 26 29 16 6 7 16 14 17 18
29 30 33 33 32 35 39 40 34 30 42 46 50 55 48 40 29 29 32 35 24 47 32 47 48 37 31 39 44 40 42 37 33 32 31 30 31 23 25 17 17 25 20 15 19
26 27 33 32 33 36 38 30 32 36 45 43 48 51 51 45 43 41 32 24 40 48 51 48 48 48 33 34 38 41 42 40 37 38 34 30 34 35 32 28 29 28 23 17 22
24 30 32 28 30 35 30 25 29 34 41 42 43 48 54 54 54 58 49 32 43 46 62 59 60 54 34 32 38 46 41 43 34 31 34 25 25 31 42 14 22 27 23 22 24
27 29 31 29 27 27 26 18 19 16 29 37 41 46 51 53 56 56 48 40 54 56 62 66 60 63 46 36 36 40 43 44 39 38 30 28 24 20 27 19 17 27 16 22 24
28 27 25 25 26 24 22 27 29 22 15 30 33 40 47 52 57 58 55 56 62 58 66 65 61 61 60 38 33 39 38 42 42 41 34 23 25 34 38 23 20 16 14 22 23
29 29 23 23 21 22 19 18 19 19 23 21 27 28 26 47 53 59 61 59 62 55 66 66 64 61 61 48 40 36 38 40 42 39 37 31 36 35 38 26 27 16 13 19 21
29 29 24 21 19 18 15 17 19 24 23 29 29 27 35 46 55 60 66 64 63 71 63 67 67 63 60 54 47 43 39 38 45 44 38 39 35 37 35 32 16 11 13 18 23
Wind_Direction
263 260 259 254 245 239 235 229 224 220 214 212 212 216 220 214 215 218 207 206 193 172 174 176 205 198 94 100 92 32 313 47 349 350 149 280 219 245 258 262 217 231 122 169 229
271 263 258 256 252 243 239 230 225 224 223 217 214 218 217 219 214 223 208 206 204 188 175 184 215 124 91 117 70 341 346 32 329 319 272 210 301 270 257 252 252 264 179 146 149
266 269 266 257 252 247 239 238 227 228 226 227 223 220 214 220 219 224 221 210 208 196 184 181 180 120 121 66 346 296 306 63 275 326 323 355 9 321 258 265 278 258 241 208 215
267 263 259 262 258 251 244 237 237 229 230 228 229 226 221 215 215 217 218 219 211 199 196 179 164 143 86 326 317 275 5 272 247 227 169 71 87 42 48 114 334 279 251 239 227
266 265 261 257 253 254 248 243 238 236 231 230 229 230 225 220 224 219 224 223 217 210 202 194 182 158 161 163 91 241 127 275 192 171 135 87 16 59 33 295 317 297 282 248 239
261 260 259 257 255 250 246 245 242 239 236 233 230 228 228 225 231 221 219 221 221 214 213 205 200 187 155 16 205 227 100 252 286 56 290 117 71 43 7 332 322 305 283 264 241
259 256 255 255 255 251 249 242 241 239 240 235 233 231 227 223 236 225 227 226 222 218 213 212 207 194 192 169 199 157 176 280 251 17 178 202 275 326 39 349 325 319 298 261 249
264 259 254 252 250 251 249 246 243 238 238 239 236 236 233 226 233 229 225 227 227 222 218 218 208 199 202 205 189 323 180 206 256 301 267 270 231 45 357 356 330 317 304 286 250
266 262 258 254 251 249 246 245 244 241 237 236 237 239 233 229 233 231 232 230 229 225 223 219 214 199 204 200 130 184 246 264 255 282 234 266 326 336 335 350 329 315 299 297 265
273 269 263 259 255 250 246 244 242 242 239 237 236 238 235 233 236 229 229 229 230 229 226 222 219 205 202 200 162 222 220 220 270 266 269 281 287 320 315 348 319 318 301 293 266
291 283 278 271 261 254 247 243 242 241 239 236 236 235 232 229 231 228 229 231 230 229 225 223 223 210 196 199 212 223 213 239 151 43 327 264 277 300 326 332 317 308 307 290 257
302 300 297 291 287 272 258 251 245 242 235 236 235 235 230 233 233 231 229 230 227 229 225 224 225 209 203 197 232 260 239 170 150 158 230 273 287 300 313 305 305 310 303 291 230
294 293 295 296 296 294 292 275 257 250 239 233 235 236 230 237 228 224 227 230 229 229 225 228 225 217 215 204 220 228 282 185 145 294 271 295 312 266 300 299 300 290 291 273 203
284 289 291 291 286 288 292 291 288 266 248 237 236 234 231 234 230 222 228 229 229 228 225 228 220 225 219 216 221 224 247 297 268 230 271 263 249 254 287 303 291 256 270 226 209
284 287 284 284 288 288 288 285 283 290 260 243 242 231 230 229 232 225 231 229 229 230 226 223 220 222 220 221 224 224 205 231 245 262 249 267 273 286 270 307 267 276 215 230 204
284 285 286 286 288 289 281 281 280 277 283 268 254 242 232 229 224 226 222 223 224 228 227 225 222 224 220 212 228 221 210 236 240 246 249 250 256 279 262 269 256 252 233 215 210
288 287 283 283 292 288 284 280 276 273 284 292 241 258 239 228 222 222 227 225 223 224 221 222 220 217 219 222 215 227 216 225 233 228 245 248 256 256 267 237 195 245 234 226 214
289 266 280 286 291 287 285 282 277 272 267 243 223 220 216 219 218 221 224 227 223 225 224 226 221 215 211 213 214 216 217 214 224 232 244 245 233 256 254 275 215 175 224 225 221
278 271 278 292 298 287 286 285 280 267 238 224 217 216 227 220 217 217 220 223 225 221 223 222 223 220 222 216 213 208 221 214 220 232 241 234 243 250 282 304 245 227 220 221 221
279 279 290 293 295 290 286 288 279 259 225 228 220 229 239 220 217 222 215 219 221 220 219 219 218 216 220 218 222 213 217 214 212 225 241 250 250 234 205 167 237 234 232 214 216
291 276 287 294 286 296 295 284 266 244 233 236 224 220 226 219 194 213 226 207 218 212 214 214 216 200 221 224 215 215 207 216 220 226 232 258 267 268 209 170 230 243 250 217 216
292 293 296 298 294 300 291 267 249 228 239 233 227 227 226 213 197 188 185 206 208 206 204 205 211 199 194 223 227 221 219 210 214 220 227 235 270 230 195 175 200 251 255 228 217
300 299 306 303 301 298 286 268 255 244 242 235 228 220 218 217 213 194 179 207 197 199 205 207 204 196 185 197 219 222 216 217 212 229 225 235 263 251 195 130 216 244 250 231 221
307 308 308 301 303 296 285 246 232 271 241 236 226 213 213 216 215 211 193 201 197 198 206 211 204 200 201 195 209 222 216 216 214 219 224 226 236 264 229 178 230 240 249 229 230
307 312 307 306 303 296 282 240 232 236 252 231 225 220 216 212 215 216 210 214 205 199 204 209 206 205 202 194 200 225 228 210 216 218 216 221 235 252 253 177 170 235 236 231 218
311 314 307 308 297 292 276 253 245 241 224 231 223 212 218 211 215 214 212 215 219 207 203 203 204 202 206 193 187 205 228 223 214 219 214 209 237 240 242 232 179 225 218 221 206
316 318 309 304 291 277 255 248 254 250 249 236 229 228 217 210 213 217 215 216 214 211 208 203 201 201 203 200 184 193 208 228 222 212 218 204 244 242 248 212 181 222 222 211 210